[[{"header":{"parameterUnit":"m.s-1","parameterCategory":1,"la1":30.2991,"la2":30.254,"lo1":-89.0895,"lo2":-89.0444,"dy":0.0017,"dx":0.0017,"nx":28,"ny":28,"refTime":"2024-05-20T03:00:00:Z","depth":0,"parameterNumber":2,"parameterNumberName":"U-component_of_WINDS"},"data":[0,0,0,0,0,0,0,0,0,0,0,0,0,0,0,0,0,0,0,0,0,0,0,0,0,0,0,0,0,0,0,0,0,0,0,0,0,0,0,0,0,0,0,0,0,0,0,0,0,0,0,0,0,0,0,0,0,0,-2.9848,-2.9847,0,-2.9819,-2.9819,-2.9819,-2.9761,-2.9759,-2.9758,-2.9757,-2.9727,-2.9727,-2.9728,0,0,0,0,0,0,0,0,0,0,0,0,0,-2.9852,-2.9853,-2.9848,-2.9847,-2.9847,-2.9819,-2.9819,-2.9819,-2.9761,-2.9759,-2.9758,-2.9757,-2.9727,-2.9727,-2.9728,0,0,0,0,0,0,0,0,0,0,0,0,0,-2.984,-2.9853,-2.9848,-2.9815,-2.9812,-2.982,-2.9819,-2.9819,-2.9761,-2.9759,-2.9758,-2.9756,-2.9727,-2.9727,-2.9728,-2.9765,0,0,-2.9729,-2.9729,0,0,0,0,0,0,0,0,-2.9841,-2.984,-2.982,-2.9817,-2.9813,-2.9792,-2.981,-2.9801,-2.9762,-2.978,-2.9757,-2.9755,-2.975,-2.9748,-2.9747,-2.9764,-2.9762,-2.9729,-2.9729,-2.9729,-2.973,0,0,0,0,0,0,0,-2.9842,-2.9841,-2.9836,-2.982,-2.9816,-2.9802,-2.9798,-2.9808,-2.9775,-2.9778,-2.9774,-2.9772,-2.9748,-2.9747,-2.9746,-2.9762,-2.9729,-2.9729,-2.973,-2.973,-2.981,-2.9812,0,0,0,0,0,0,-2.9847,-2.9842,-2.9837,-2.9835,-2.9823,-2.9803,-2.9799,-2.98,-2.9775,-2.9769,-2.9773,-2.9769,-2.9747,-2.9745,-2.9744,-2.9787,-2.9729,-2.973,-2.973,-2.9808,-2.981,-2.9812,0,0,0,0,0,0,-2.9848,-2.9847,-2.9838,-2.9838,-2.9835,-2.9805,-2.9807,-2.9801,-2.9799,-2.9771,-2.9765,-2.9778,-2.9745,-2.9744,-2.9761,-2.9785,-2.973,-2.973,-2.9806,-2.9809,-2.9811,-2.9872,0,0,0,0,0,0,-2.9848,-2.9848,-2.9861,-2.9838,-2.9836,-2.9855,-2.9809,-2.9802,-2.98,-2.9795,-2.9774,-2.9768,-2.9744,-2.9761,-2.9761,-2.9784,-2.9731,-2.9804,-2.9807,-2.9811,-2.9868,-2.9876,-2.9884,0,0,0,0,0,-2.9848,-2.9878,-2.9862,-2.9862,-2.9852,-2.9856,-2.9855,-2.9826,-2.9803,-2.9816,-2.9798,-2.9769,-2.9783,-2.9763,-2.9763,-2.9787,-2.9802,-2.9806,-2.981,-2.9864,-2.9875,-2.9884,0,0,0,0,0,0,-2.9903,-2.9875,-2.9856,-2.988,-2.9871,-2.9847,-2.9862,-2.9838,-2.9836,-2.983,-2.9795,-2.9791,-2.9813,-2.9802,-2.978,-2.9823,-2.9788,-2.9792,-2.9829,-2.9839,-2.9847,-2.9848,-2.9731,0,0,0,0,0,-2.9919,-2.9925,-2.99,-2.9923,-2.992,-2.9892,-2.9893,-2.9873,-2.9862,-2.9858,-2.9841,-2.9832,-2.9834,-2.9836,-2.9837,-2.9867,-2.9862,-2.9884,-2.9892,-2.9899,-2.9902,-2.9919,-2.9929,-2.9826,-2.9826,-2.9826,0,0,-2.9949,-2.9934,-2.994,-2.9934,-2.9925,-2.9932,-2.9889,-2.9899,-2.9904,-2.9859,-2.9874,-2.9862,-2.985,-2.9874,-2.9884,-2.9865,-2.993,-2.9904,-2.991,-2.991,-2.9924,-2.9934,-2.9943,-2.9829,-2.9829,-2.9828,0,0,-3.0008,-2.9998,-3.0017,-3.001,-2.9997,-2.9979,-2.9984,-2.9964,-2.9955,-2.997,-2.9937,-2.9944,-2.9948,-2.9941,-2.9938,-3.0,-2.9973,-3.0001,-3.0043,-3.006,-3.0068,-3.0075,-3.0097,-3.0105,-3.0006,-3.0006,-3.0006,0,-3.0047,-3.0058,-3.003,-3.0042,-3.0041,-3.0002,-3.0022,-3.0016,-3.0004,-3.0004,-2.9985,-2.9991,-2.998,-3.0003,-3.0018,-3.0017,-3.0022,-3.0002,-3.0069,-3.0076,-3.0082,-3.0102,-3.0111,-3.0009,-3.0009,-3.0008,-3.0008,0,-3.0107,-3.0115,-3.0132,-3.0123,-3.0124,-3.014,-3.0114,-3.0119,-3.01,-3.0085,-3.0102,-3.0088,-3.0085,-3.009,-3.007,-3.0111,-3.01,-3.0076,-3.0039,-3.0096,-3.0114,-3.0122,-3.0014,-3.0013,-3.0012,-3.0011,0,0,-3.0195,-3.0174,-3.018,-3.0177,-3.0163,-3.0168,-3.0184,-3.0183,-3.0188,-3.0182,-3.0194,-3.0201,-3.0179,-3.0176,-3.0156,-3.0171,-3.0222,-3.0145,-3.0144,-3.0159,-3.0266,-3.0283,-3.0292,-3.0205,-3.0207,-3.0208,-3.0267,0,-3.025,-3.0274,-3.0252,-3.0281,-3.0288,-3.0255,-3.0268,-3.0261,-3.0249,-3.0254,-3.024,-3.0245,-3.0216,-3.0214,-3.0228,-3.0213,-3.0242,-3.0208,-3.0216,-3.0216,-3.0217,-3.0302,-3.0319,-3.0375,-3.0274,-3.0275,-3.0276,0,-3.0316,-3.0315,-3.0346,-3.0332,-3.0334,-3.0347,-3.0345,-3.0351,-3.0344,-3.0333,-3.0332,-3.0309,-3.0324,-3.0292,-3.0312,-3.029,-3.0292,-3.0286,-3.0287,-3.0285,-3.0248,-3.0301,-3.0392,-3.04,-3.0287,-3.0286,-3.0285,0,-3.0377,-3.0384,-3.0403,-3.0401,-3.0386,-3.0396,-3.039,-3.0381,-3.0383,-3.0382,-3.0383,-3.0385,-3.0385,-3.0387,-3.0365,-3.0343,-3.0388,-3.0353,-3.038,-3.0381,-3.0388,-3.0388,-3.048,-3.0394,-3.0394,-3.0393,-3.0393,0,-3.0439,-3.0458,-3.0431,-3.0442,-3.0464,-3.0439,-3.0461,-3.0452,-3.0445,-3.0455,-3.0427,-3.0436,-3.0408,-3.0415,-3.0399,-3.0419,-3.0419,-3.0412,-3.0407,-3.0413,-3.0414,-3.0412,-3.0407,-3.0396,-3.0395,-3.0395,-3.0394,0,-3.0508,-3.0491,-3.051,-3.0495,-3.0492,-3.0509,-3.0496,-3.0507,-3.0495,-3.0508,-3.0509,-3.0489,-3.0496,-3.0476,-3.048,-3.0469,-3.0498,-3.0487,-3.05,-3.0496,-3.0524,-3.0521,-3.0617,-3.0628,-3.0536,-3.0537,-3.0537,0,-3.0548,-3.0563,-3.0551,-3.0556,-3.0552,-3.056,-3.0563,-3.054,-3.0544,-3.0539,-3.0551,-3.0557,-3.0559,-3.0573,-3.0559,-3.0563,-3.0551,-3.0585,-3.0551,-3.0558,-3.055,-3.0549,-3.055,-3.059,-3.0592,-3.0592,-3.0593,0,-3.062,-3.0611,-3.0616,-3.062,-3.0624,-3.0625,-3.0624,-3.063,-3.0606,-3.0612,-3.062,-3.0623,-3.0629,-3.0635,-3.0636,-3.063,-3.0608,-3.0605,-3.0611,-3.0616,-3.0623,-3.0619,-3.0517,-3.0602,-3.0601,-3.06,-3.06,-3.0599,-3.0674,-3.0687,-3.0681,-3.0688,-3.0686,-3.0687,-3.0697,-3.0687,-3.0694,-3.0697,-3.0684,-3.0695,-3.069,-3.069,-3.0687,-3.0696,-3.0681,-3.069,-3.0691,-3.0694,-3.0698,-3.0624,-3.0696,-3.0696,-3.0696,-3.0696,-3.0695,0,-3.0744,-3.074,-3.0747,-3.0748,-3.0755,-3.0736,-3.0735,-3.0741,-3.0752,-3.075,-3.0754,-3.0765,-3.0772,-3.076,-3.0765,-3.0775,-3.0765,-3.0777,-3.0774,-3.0774,-3.0712,-3.0705,-3.0785,-3.0785,-3.0785,-3.0785,-3.0785,-3.0785,-3.0781,-3.08,-3.0792,-3.0812,-3.0808,-3.0819,-3.082,-3.0821,-3.082,-3.0833,-3.0839,-3.0832,-3.0827,-3.0832,-3.0838,-3.0834,-3.0837,-3.0852,-3.0845,-3.0787,-3.0778,-3.0769,-3.0763,-3.0853,-3.0853,-3.0906,-3.0906,-3.0907]},{"header":{"parameterUnit":"m.s-1","parameterCategory":1,"la1":30.2991,"la2":30.254,"lo1":-89.0895,"lo2":-89.0444,"dy":0.0017,"dx":0.0017,"nx":28,"ny":28,"refTime":"2024-05-20T03:00:00:Z","depth":0,"parameterNumber":3,"parameterNumberName":"V-component_of_WINDS"},"data":[0,0,0,0,0,0,0,0,0,0,0,0,0,0,0,0,0,0,0,0,0,0,0,0,0,0,0,0,0,0,0,0,0,0,0,0,0,0,0,0,0,0,0,0,0,0,0,0,0,0,0,0,0,0,0,0,0,0,2.273,2.273,0,2.2708,2.2707,2.2707,2.277,2.2772,2.2774,2.2776,2.2749,2.2747,2.2744,0,0,0,0,0,0,0,0,0,0,0,0,0,2.2824,2.2822,2.273,2.273,2.2729,2.2708,2.2707,2.2707,2.277,2.2772,2.2775,2.2777,2.275,2.2747,2.2744,0,0,0,0,0,0,0,0,0,0,0,0,0,2.279,2.2821,2.273,2.2758,2.276,2.2708,2.2707,2.2707,2.2769,2.2772,2.2775,2.2778,2.2751,2.2748,2.2744,2.2662,0,0,2.2732,2.2731,0,0,0,0,0,0,0,0,2.2792,2.2787,2.2754,2.2756,2.2759,2.2745,2.2731,2.2692,2.2769,2.2766,2.2776,2.2779,2.2745,2.2742,2.2731,2.266,2.2659,2.2732,2.273,2.2728,2.2727,0,0,0,0,0,0,0,2.2794,2.2788,2.2721,2.2754,2.2756,2.2771,2.277,2.2724,2.2739,2.2766,2.2771,2.2768,2.2747,2.2735,2.2731,2.2659,2.2732,2.2729,2.2726,2.2725,2.2521,2.2518,0,0,0,0,0,0,2.2794,2.279,2.2722,2.272,2.2783,2.2767,2.2765,2.2746,2.274,2.2742,2.2765,2.2771,2.274,2.2736,2.2731,2.2634,2.2728,2.2724,2.2722,2.2524,2.252,2.2516,0,0,0,0,0,0,2.2795,2.2787,2.2723,2.2756,2.2749,2.2762,2.274,2.2744,2.2732,2.2739,2.2742,2.275,2.2742,2.2736,2.2679,2.2634,2.2723,2.2719,2.2527,2.2522,2.2518,2.2441,0,0,0,0,0,0,2.2798,2.2787,2.2756,2.2755,2.2747,2.2672,2.2738,2.2742,2.2726,2.2733,2.2726,2.2727,2.2744,2.2684,2.2675,2.2631,2.2716,2.2531,2.2525,2.252,2.2448,2.2434,2.2423,0,0,0,0,0,2.2801,2.2735,2.2755,2.2746,2.2709,2.2669,2.2664,2.2686,2.2722,2.2691,2.2696,2.2727,2.2641,2.2678,2.2668,2.2622,2.2534,2.2527,2.252,2.2453,2.2437,2.2423,0,0,0,0,0,0,2.2728,2.2735,2.2757,2.2689,2.2678,2.268,2.2641,2.2668,2.2646,2.2653,2.268,2.2677,2.2615,2.2613,2.2654,2.2543,2.2594,2.2584,2.2546,2.2531,2.2519,2.252,2.2713,0,0,0,0,0,2.2705,2.2673,2.268,2.2618,2.2612,2.2627,2.2611,2.2629,2.2618,2.2613,2.2614,2.2601,2.2572,2.2551,2.2524,2.2448,2.2447,2.2412,2.2399,2.2389,2.238,2.234,2.2325,2.2493,2.2493,2.2493,0,0,2.2655,2.2655,2.2632,2.2604,2.2598,2.2563,2.2623,2.2583,2.2558,2.2607,2.2554,2.2554,2.2542,2.2475,2.2445,2.2471,2.2334,2.238,2.2372,2.2369,2.2332,2.2316,2.2301,2.2488,2.2489,2.249,0,0,2.2546,2.2543,2.2492,2.2485,2.2476,2.2487,2.2475,2.2473,2.2475,2.2423,2.2459,2.2429,2.2377,2.2367,2.2355,2.2245,2.2273,2.2235,2.217,2.2131,2.2118,2.2106,2.2066,2.2052,2.2227,2.2227,2.2226,0,2.2485,2.2435,2.2462,2.2421,2.2407,2.2452,2.2401,2.2392,2.2374,2.2363,2.2393,2.2329,2.2324,2.2256,2.223,2.2219,2.2205,2.2236,2.2118,2.2106,2.2096,2.2058,2.2043,2.2222,2.2223,2.2223,2.2223,0,2.2361,2.2326,2.2285,2.2268,2.2251,2.2204,2.2223,2.2202,2.2222,2.2229,2.2175,2.2171,2.2145,2.213,2.2148,2.2064,2.2081,2.2113,2.2165,2.2075,2.204,2.2026,2.2216,2.2217,2.2219,2.222,0,0,2.2204,2.2204,2.2189,2.2182,2.2176,2.2149,2.2105,2.208,2.2061,2.2047,2.2011,2.1967,2.1998,2.1984,2.2002,2.1968,2.1881,2.2005,2.2005,2.1981,2.1788,2.1763,2.1746,2.19,2.1898,2.1895,2.1789,0,2.2097,2.2022,2.2046,2.197,2.1938,2.1981,2.1943,2.1934,2.1941,2.1914,2.1921,2.1889,2.1932,2.1925,2.1893,2.1898,2.1842,2.1906,2.1865,2.1863,2.1866,2.1728,2.1701,2.1601,2.1776,2.1773,2.1772,0,2.1961,2.1944,2.1866,2.1866,2.1854,2.1819,2.1799,2.1773,2.1765,2.1772,2.1758,2.1783,2.1739,2.1792,2.1732,2.1775,2.176,2.176,2.1757,2.1753,2.1811,2.1719,2.1569,2.1554,2.1751,2.1752,2.1754,0,2.1855,2.1812,2.176,2.1753,2.1752,2.1727,2.1725,2.172,2.1704,2.1686,2.1676,2.1653,2.164,2.1621,2.164,2.1677,2.1576,2.1631,2.158,2.158,2.1556,2.1557,2.14,2.1548,2.1548,2.1548,2.1548,0,2.1732,2.1682,2.1712,2.1679,2.1625,2.1653,2.1598,2.1601,2.1596,2.1565,2.1601,2.157,2.1597,2.1569,2.1583,2.1531,2.1525,2.1529,2.1533,2.1525,2.1524,2.1514,2.1521,2.1544,2.1545,2.1546,2.1546,0,2.1603,2.1621,2.1567,2.1572,2.1572,2.1531,2.1535,2.1505,2.1515,2.1475,2.1467,2.1482,2.1451,2.1468,2.1435,2.1445,2.1377,2.1391,2.138,2.1383,2.1332,2.1336,2.1162,2.1141,2.1303,2.1301,2.13,0,2.1523,2.1486,2.1488,2.147,2.1467,2.1437,2.1422,2.1448,2.1431,2.1419,2.139,2.1363,2.1342,2.129,2.1297,2.1273,2.1286,2.1227,2.1282,2.1276,2.1284,2.1286,2.1283,2.1215,2.1213,2.1212,2.121,0,2.138,2.1391,2.1368,2.1348,2.133,2.1315,2.1303,2.1286,2.1313,2.1291,2.126,2.1244,2.1212,2.1184,2.1163,2.1161,2.1189,2.1193,2.118,2.1171,2.1166,2.1168,2.1349,2.1197,2.1198,2.1199,2.12,2.12,2.1273,2.1242,2.1239,2.1212,2.1207,2.1195,2.1168,2.1175,2.1151,2.1127,2.1144,2.1108,2.1101,2.1077,2.1071,2.1043,2.1066,2.1047,2.1042,2.1037,2.103,2.1172,2.1039,2.1039,2.104,2.104,2.104,0,2.1131,2.1131,2.1107,2.109,2.1069,2.1101,2.1089,2.107,2.1038,2.103,2.1009,2.0974,2.0948,2.0954,2.093,2.0906,2.0918,2.0898,2.09,2.0899,2.101,2.1024,2.0889,2.0889,2.0889,2.0889,2.0889,2.0889,2.1054,2.1005,2.1015,2.0963,2.0964,2.093,2.0921,2.091,2.0905,2.0865,2.0843,2.0848,2.0846,2.0822,2.0799,2.0801,2.079,2.0765,2.0772,2.0876,2.0891,2.0905,2.0918,2.0763,2.0763,2.0664,2.0663,2.0662]}]]